Regional Weather Roundup
Issued by NWS Kansas City/Pleasant Hill, MO

Home | Current Version | Previous Version | Graphics & Text | Print | Product List | Glossary Off
Versions: 1 2 3 4 5 6 7 8 9 10 11 12 13 14 15 16 17 18 19 20 21 22 23 24 25 26 27 28 29 30 31 32 33 34 35 36 37 38 39 40 41 42 43 44 45 46 47 48 49 50

000
ASUS43 KEAX 051404
RWREAX

WEATHER ROUNDUP FOR EASTERN KANSAS AND NORTHWEST MISSOURI
NATIONAL WEATHER SERVICE KANSAS CITY/PLEASANT HILL MO
900 AM CDT SUN JUL 05 2015

KSZ040-057-103>105-MOZ028-029-037-043-051500-
...KANSAS CITY METROPOLITAN AREA...

CITY           SKY/WX    TMP DP  RH WIND       PRES   REMARKS
K.C. INTL      PTSUNNY   76  70  82 S9        30.01R
K.C. DOWNTOWN  SUNNY     78  70  76 S8        30.00R
LEES SUMMIT    MOSUNNY   74  69  85 S8        30.02R
OLATHE - IXD   MOSUNNY   76  70  82 S8        30.01R
OLATHE - OJC   MOSUNNY   75  71  87 S8        30.01R
LAWRENCE       MOSUNNY   76  70  82 SE5       29.99R

$$

MOZ001>008-011>017-020>025-030>033-038>040-044>046-053-054-051500-
...NORTHERN AND CENTRAL MISSOURI...

CITY           SKY/WX    TMP DP  RH WIND       PRES   REMARKS
ST. JOSEPH     PTSUNNY   76  69  79 S9        29.99R
MOSBY          MOSUNNY   73  68  83 S5        30.01R
HARRISONVILLE  MOSUNNY   77  72  83 S6        30.04R
WARRENSBURG    SUNNY     75  70  83 S8        30.02R
WHITEMAN AFB   SUNNY     76  72  86 S8        30.02R
CLINTON        SUNNY     77  73  88 S6        30.03S
SEDALIA        SUNNY     77  70  79 S9        30.05R
WARSAW         FAIR      75  72  88 S5        30.04S
CHILLICOTHE      N/A     74  69  85 S5        30.02S
KIRKSVILLE     SUNNY     74  68  81 S6        30.05R HAZE

$$

MOZ041-047>049-056>058-063>065-088>090-097-051500-
...EASTERN AND SOUTHERN MISSOURI...

CITY           SKY/WX    TMP DP  RH WIND       PRES   REMARKS
ST. LOUIS INTL SUNNY     77  67  71 S6        30.08S
SPIRIT OF STL  MOSUNNY   74  69  85 S3        30.06R HAZE
COLUMBIA       SUNNY     74  70  87 S6        30.06R
JEFFERSON CITY CLOUDY    73  68  84 S10       30.06R
MEXICO         SUNNY    N/A N/A N/A S7        30.06R HAZE
ROLLA          CLOUDY    71  68  90 S7        30.06S
LEBANON        CLOUDY    72  70  94 S10       30.08S
OSAGE BEACH    CLOUDY    72  68  88 S9        30.06R
SPRINGFIELD    CLOUDY    74  70  87 S9        30.06R
BRANSON        FOG       72  72 100 CALM      30.08R VSB 1/2
JOPLIN         PTSUNNY   76  70  82 S6        30.03S
WEST PLAINS    CLOUDY    71  68  90 S6        30.10R
MALDEN         CLOUDY    73  72  94 CALM      30.07F FOG

$$

IAZ060-094-KSZ022-034>040-054-083-096-NEZ052-066-093-051500-
...KANSAS...SOUTHEAST NEBRASKA AND IOWA...

CITY           SKY/WX    TMP DP  RH WIND       PRES   REMARKS
TOPEKA         SUNNY     77  70  79 SE8       29.97S
MANHATTAN      MOSUNNY   78  70  76 SE6       29.92S
EMPORIA        MOSUNNY   78  70  76 S16G23    29.98R
CHANUTE        MOSUNNY   79  71  76 S12       30.00S
WICHITA        PTSUNNY   78  70  76 S14       29.94S
OMAHA          CLOUDY    70  65  84 SE7       29.94R
LINCOLN        CLOUDY    73  67  81 S10       29.93R
FALLS CITY     PTSUNNY   73  68  84 SE8       29.96S
LAMONI         MOSUNNY   72  66  81 S8        30.01S
DES MOINES     CLOUDY    73  64  73 S9        29.99S

$$



USA.gov is the U.S. government's official web portal to all federal, state and local government web resources and services.